User: anonymous   Login
Location: Carter Cabin
(41.0271°N, 122.9339°W)
Time: 12:53:58
(UTC+00:00)
Language:

SL-16 R/B - Orbit

View from above orbital plane
View from above orbital plane
View from above satellite
View from above satellite

Ground track
Ground track

The orbit data is extracted from the following two-line orbital elements,

1 28353U 04021B   24174.18509159  .00000055  00000-0  53389-4 0  9996
2 28353  71.0018 105.0038 0007437 270.2102  89.8168 14.14426500 34387
Epoch (UTC): 22 June 2024 04:26:31
Eccentricity: 0.0007437
inclination: 71.0018°
perigee height: 839 km
apogee height: 849 km
right ascension of ascending node: 105.0038°
argument of perigee: 270.2102°
revolutions per day: 14.14426500
mean anomaly at epoch: 89.8168°
orbit number at epoch: 3438

The dashed part of the orbit path shows where the satellite is in the earth's shadow,  

DLR